User: anonymous   Login
Location: Deep South Regional Star Gaze
(30.9929°N, 90.9586°W)
Time: 17:29:47
(UTC-05:00)
Language:

MSX - Orbit

View from above orbital plane
View from above orbital plane
View from above satellite
View from above satellite

Ground track
Ground track

The orbit data is extracted from the following two-line orbital elements,

1 23851U 96024A   17086.66630102 0.00000010  00000-0  70451-5 0    02
2 23851  98.6738  96.8715 0008504 198.4668 161.5331 13.98048160    07
Epoch (UTC): 27 March 2017 15:59:28
Eccentricity: 0.0008504
inclination: 98.6738°
perigee height: 894 km
apogee height: 907 km
right ascension of ascending node: 96.8715°
argument of perigee: 198.4668°
revolutions per day: 13.98048160
mean anomaly at epoch: 161.5331°
orbit number at epoch: 0

The dashed part of the orbit path shows where the satellite is in the earth's shadow,  

DLR